AEROCUBE 5C

Last updated on Fri Jul 11 2025 00:03:41 GMT+0000 (Coordinated Universal Time)

1 40965U 15058B 25191.57865783 .00001745 00000+0 16198-3 0 9994 2 40965 64.7668 243.2481 0160366 190.5243 169.2500 14.88740824314752
UTC large
Height (km)
Speed (km/s)
/
Latitude / Longitude
Inclination (degrees)
Orbital Period (minutes)
Azimuth
Elevation
Range (km)
Doppler Factor

Next 0 passes for location: London (51.5072 / 0.1276)

Sorry there are no passes over London.